THORAD AGENA D DEB, 4938

Orbit data source: Space-Track

THORAD AGENA D DEB, 4938 is space debris in LEO originally from a launch on Tue, 30 Sep 1969 UTC launched from the Air Force Western Test Range (AFWTR). Debris objects in space refer to the collection of defunct objects orbiting the Earth. Examples of debris include non-operational satellites, rocket bodies, and fragments generated from explosions, collisions, or faulty payload assembly.

Loading next visibility...
Identifier
4938, 1969-082HJ
Orbit
LEO
Country
Flag of USUS
Related business
Manufacturer
Unknown
Mission
Spacecraft
Bus & Motor
Unknown
Mass
Unknown
Launch date (UTC)
1969-09-30 (57 years ago)
Launch vehicle
Unknown
Launch site
Air Force Western Test Range (AFWTR)
Object type
Payload
Rocket body
Debris
Shape & HBR
Unknown shape, 0.1 m
Radar Cross Section
Medium (>0.1 m² and <1 m²)

Expand to show TLE details & history
Last TLE update: 3 days ago

TLE from 3 days ago
0 THORAD AGENA D DEB
1  4938U 69082HJ  26171.31202552  .00008325  00000-0  78427-3 0  9995
2  4938  70.1205  27.2137 0008716  61.1881 299.0151 14.94105247974150
Epoch: 2026-06-20T07:29Z
TLE epoch observation values (Epoch: 2026-06-20T07:29:19.004Z)
Latitude
-0.00003°
Longitude
6.35605°
Altitude
584.639 km
Speed
7.57 km/s
True Right ascension
01h 48m 51s
True Declination
0° 00' 00"
Sunlit
Object was in daylight at epoch
Visualization orbit readout
Latitude
Unknown
Longitude
Unknown
Altitude
Unknown
Speed
Unknown
Apparent Right ascension
Unknown
Apparent Declination
Unknown
Sunlit
N/A
Visualization observer readout
Local Sidereal Time
12:49:13
Azimuth
Unknown
Elevation
Unknown
Doppler factor
Unknown
Orbital elements
Apogee altitude
589.158 km
Perigee altitude
577.023 km
Semi-major axis
6,961.228 km
Eccentricity
0.00087
Inclination
70.1205°
RAAN
27.2137°
Arg. of periapsis
61.1881°
True anomaly
298.92771°
Mean anomaly
299.0151°
Eccentric anomaly
298.97141°
Mean motion
3.73693 °/min
Orbital period
96.34 mins
BSTAR
0.00078427

Documentation

Showing up to 5 results
|